Weather Roundup
Issued by NWS Corpus Christi, TX

Home | Current Version | Previous Version | Text Only | Print | Product List | Glossary On
Versions: 1 2 3 4 5 6 7 8 9 10 11 12 13 14 15 16 17 18 19 20 21 22 23 24 25 26 27 28 29 30 31 32 33 34 35 36 37 38 39 40 41 42 43 44 45 46 47 48 49 50
773
ASUS44 KCRP 051710
HRRCRP

SOUTH TEXAS REGIONAL WEATHER ROUNDUP
NATIONAL WEATHER SERVICE CORPUS CHRISTI TX
1100 AM CST MON DEC 05 2016


TXZ229>244-051800-
...CORPUS CHRISTI AREA OBSERVATIONS...

CITY           SKY/WX    TMP DP  RH WIND       PRES   REMARKS
CORPUS CHRISTI CLOUDY    55  51  86 N20       29.88F
NAS CORPUS CHR CLOUDY    55  51  86 N16       29.88F
ROCKPORT         N/A    N/A N/A N/A MISG      29.88S
KINGSVILLE NAS PTSUNNY   57  53  86 NW15      29.90S
ALICE          CLOUDY    57  50  77 NW12      29.89S
ORANGE GROVE   PTSUNNY   57  52  83 N13       29.90S
FALFURRIAS     CLOUDY    56  50  78 NW9       29.91S
$$

...VICTORIA AREA OBSERVATIONS...

CITY           SKY/WX    TMP DP  RH WIND       PRES   REMARKS
VICTORIA       CLOUDY    51  50  96 NW13      29.87S
BEEVILLE       CLOUDY    54  53  97 N13       29.90S
PLEASANTON     LGT RAIN  51  50  94 NW6       29.92S
SAN ANTONIO    LGT RAIN  51  49  92 NW7       29.90F FOG
$$

...LAREDO AREA OBSERVATIONS...

CITY           SKY/WX    TMP DP  RH WIND       PRES   REMARKS
LAREDO         CLOUDY    54  49  83 NW12      29.94F
COTULLA        CLOUDY    54  49  83 W8        29.93F
DEL RIO        CLOUDY    52  47  83 NW6       29.92F
MCALLEN        CLOUDY    61  51  70 NW10      29.93S
HEBBRONVILLE   CLOUDY    52  49  90 NW10      29.92S
$$

...OTHER TEXAS OBSERVATIONS...

CITY           SKY/WX    TMP DP  RH WIND       PRES   REMARKS
BROWNSVILLE    CLOUDY    58  53  84 NW9       29.91F
HOUSTON        CLOUDY    53  51  93 E7        29.81F
COL. STATION   CLOUDY    50  48  93 N7        29.85R
AUSTIN         LGT RAIN  52  50  93 N12       29.88F FOG
WACO           NOT AVBL
FORT WORTH     CLOUDY    50  44  80 SE5       29.90R
WICHITA FALLS  PTSUNNY   46  41  82 S12       29.88F
LUBBOCK        MOSUNNY   50  30  46 SW15      29.80F
EL PASO        FAIR      50  30  46 W8        29.93F
$$

...MARINE OBSERVATIONS...

STATION/POSITION TIME  SKY/WX   TEMP    WIND        PRES    VSBY  WAVE   SWELL
                                AIR SEA DIR/SP/G                  HT/PER HT/PER
                 (UTC)          (F)     (DEG/KT/KT) (MB)    (MI)  (FT/S) (FT/S)
PORT ARANSAS     1600            52 64  310/ 13/ 16 1011.4R
BUOY 90 E PORT A 1650            64 77  310/ 19/ 23 1008.8R         7/ 8   3/ 8
BUOY 45 SE BAFFI 1650            59 76  310/ 16/ 21 1011.0R         6/ 8   3/ 8
BUOY 200 E PT IS 1650            78 80  270/ 14/ 16 1008.3F         5/ 7   3/ 7
BUOY 15 E GALVES 1650            56 67   10/ 17/ 19 1008.9F         6/ 5   2/13
$$




USA.gov is the U.S. government's official web portal to all federal, state and local government web resources and services.